Kansas City, MO

5:20 AM CDT on March 24, 2017 (GMT -0500)
Kansas City Downtown

Weather History for KMKC - January, 2013

Change the Weather History Date:

Tuesday, January 29, 2013

  Actual Average Record
Temperature  
Mean Temperature 53 °F -  
Max Temperature 69 °F 38 °F 69 °F (2013)
Min Temperature 37 °F 23 °F 3 °F (2004)
Degree Days  
Heating Degree Days 12    
Growing Degree Days 3 (Base 50)    
Moisture  
Dew Point 43 °F    
Average Humidity 86    
Maximum Humidity 93    
Minimum Humidity 68    
Precipitation  
Precipitation 0.86 in - - ()
Sea Level Pressure  
Sea Level Pressure 29.57 in    
Wind  
Wind Speed 12 mph (NNW)    
Max Wind Speed 24 mph    
Max Gust Speed 41 mph    
Visibility 5 miles    
Events Rain , Thunderstorm    
Averages and records for this station are not official NWS values.
T = Trace of Precipitation, MM = Missing Value Source: NWS Daily Summary

Daily Weather History Graph

Daily Weather History Graph

Search for Another Location

Airport or City:

Trip Planner

Search our weather history database for the weather conditions in past years. The results will help you decide how hot, cold, wet, or windy it might be!

Date:

Astronomy

Jan. 29, 2013 Rise Set
Actual Time 7:27 AM CST 5:36 PM CST
Civil Twilight 6:58 AM CST 6:04 PM CST
Nautical Twilight 6:26 AM CST 6:36 PM CST
Astronomical Twilight 5:55 AM CST 7:08 PM CST
Moon 8:31 PM CST (1/29) 8:26 AM CST (1/29)
Length of Visible Light 11h 05m
Length of Day
10h 08m
Waning Gibbous, 93% of the Moon is Illuminated
Jan 29
Waning Gibbous
Feb 3
Last Quarter
Feb 10
New
Feb 17
First Quarter
Feb 25
Full

Hourly Weather History & Observations

Time (CST) Temp. Windchill Dew Point Humidity Pressure Visibility Wind Dir Wind Speed Gust Speed Precip Events Conditions
12:37 AM 69.8 °F - 60.8 °F 73% 29.63 in 10.0 mi SSW 20.7 mph 41.4 mph N/A   Mostly Cloudy
12:54 AM 69.1 °F - 60.1 °F 73% 29.60 in 10.0 mi South 18.4 mph 36.8 mph N/A   Scattered Clouds
1:24 AM 69.8 °F - 59.0 °F 68% 29.60 in 10.0 mi SSW 24.2 mph 39.1 mph N/A Thunderstorm Partly Cloudy
1:51 AM 69.8 °F - 60.8 °F 73% 29.60 in 10.0 mi SSW 20.7 mph 38.0 mph N/A   Partly Cloudy
1:54 AM 69.1 °F - 60.1 °F 73% 29.58 in 10.0 mi SSW 23.0 mph 34.5 mph N/A   Partly Cloudy
2:54 AM 69.1 °F - 60.1 °F 73% 29.58 in 10.0 mi SSW 19.6 mph 31.1 mph N/A   Scattered Clouds
3:54 AM 69.1 °F - 59.0 °F 70% 29.58 in 10.0 mi SSW 23.0 mph 33.4 mph N/A   Clear
4:54 AM 68.0 °F - 59.0 °F 73% 29.57 in 10.0 mi SSW 16.1 mph 25.3 mph N/A   Clear
5:54 AM 66.9 °F - 57.9 °F 73% 29.57 in 10.0 mi SSW 12.7 mph 21.9 mph N/A   Clear
6:54 AM 64.9 °F - 57.9 °F 78% 29.56 in 10.0 mi SSW 15.0 mph 20.7 mph N/A   Partly Cloudy
7:49 AM 55.4 °F - 48.2 °F 77% 29.58 in 8.0 mi NW 9.2 mph 20.7 mph 0.00 in Rain Light Rain
7:54 AM 53.1 °F - 48.0 °F 83% 29.59 in 5.0 mi WNW 8.1 mph - 0.01 in Rain Light Rain
8:02 AM 50.0 °F - 46.4 °F 87% 29.61 in 3.0 mi NNW 11.5 mph 17.3 mph 0.01 in Rain Light Rain
8:18 AM 48.2 °F - 44.6 °F 87% 29.62 in 5.0 mi WNW 10.4 mph - 0.01 in Rain , Thunderstorm Light Rain
8:45 AM 46.4 °F 42.4 °F 42.8 °F 87% 29.64 in 2.5 mi WNW 8.1 mph - 0.05 in Rain Rain
8:54 AM 46.0 °F 41.9 °F 43.0 °F 89% 29.66 in 2.5 mi West 8.1 mph - 0.07 in Rain Rain
9:08 AM 46.4 °F 42.9 °F 42.8 °F 87% 29.67 in 1.8 mi NW 6.9 mph - 0.06 in Rain Rain
9:15 AM 46.4 °F 42.9 °F 42.8 °F 87% 29.67 in 2.0 mi NW 6.9 mph - 0.08 in Rain Rain
9:32 AM 44.6 °F 41.4 °F 42.8 °F 93% 29.68 in 2.5 mi WNW 5.8 mph - 0.14 in Rain Light Rain
9:35 AM 44.6 °F 42.2 °F 42.8 °F 93% 29.67 in 3.0 mi NW 4.6 mph - 0.14 in Rain , Thunderstorm Rain
9:54 AM 44.1 °F 41.5 °F 41.0 °F 89% 29.64 in 2.5 mi WNW 4.6 mph - 0.21 in Rain , Thunderstorm Thunderstorms and Rain
10:13 AM 44.6 °F 41.4 °F 41.0 °F 87% 29.61 in 2.5 mi North 5.8 mph - 0.06 in Rain , Thunderstorm Rain
10:20 AM 44.6 °F - 41.0 °F 87% 29.62 in 2.5 mi Calm Calm - 0.09 in Rain Rain
10:35 AM 44.6 °F - 42.8 °F 93% 29.64 in 2.5 mi Calm Calm - 0.16 in Rain , Thunderstorm Heavy Rain
10:54 AM 44.1 °F - 42.1 °F 93% 29.65 in 1.0 mi Calm Calm - 0.24 in Rain , Thunderstorm Rain
11:03 AM 44.6 °F - 42.8 °F 93% 29.64 in 1.0 mi Calm Calm - 0.04 in Rain , Thunderstorm Thunderstorms and Rain
11:14 AM 44.6 °F 43.1 °F 41.0 °F 87% 29.61 in 1.5 mi NNE 3.5 mph - 0.07 in Rain , Thunderstorm Thunderstorms and Rain
11:24 AM 44.6 °F 42.2 °F 41.0 °F 87% 29.59 in 1.5 mi NNE 4.6 mph - 0.11 in Rain Rain
11:43 AM 44.6 °F 42.2 °F 42.8 °F 93% 29.59 in 3.0 mi NNW 4.6 mph - 0.12 in Rain Light Rain
11:51 AM 44.6 °F 41.4 °F 42.8 °F 93% 29.58 in 3.0 mi North 5.8 mph - 0.12 in Rain Light Rain
11:54 AM 45.0 °F 40.6 °F 42.1 °F 90% 29.58 in 3.0 mi NNW 8.1 mph - 0.12 in Rain Light Rain
12:08 PM 44.6 °F 41.4 °F 41.0 °F 87% 29.59 in 2.0 mi NW 5.8 mph - 0.03 in Rain Rain
12:34 PM 44.6 °F 40.7 °F 41.0 °F 87% 29.54 in 2.5 mi ENE 6.9 mph - 0.07 in Rain Light Rain
12:48 PM 44.6 °F 39.7 °F 42.8 °F 93% 29.52 in 3.0 mi ENE 9.2 mph - 0.07 in Rain Light Rain
12:54 PM 45.0 °F 40.6 °F 42.1 °F 90% 29.50 in 4.0 mi East 8.1 mph - 0.07 in Rain Light Rain
1:54 PM 44.1 °F 40.1 °F 41.0 °F 89% 29.49 in 2.5 mi NE 6.9 mph - 0.02 in Rain Rain
2:08 PM 44.6 °F 40.2 °F 41.0 °F 87% 29.49 in 5.0 mi NE 8.1 mph - 0.00 in Rain Light Rain
2:54 PM 41.0 °F 33.9 °F 37.9 °F 89% 29.48 in 4.0 mi NNE 12.7 mph 19.6 mph 0.00 in   Overcast
3:54 PM 39.0 °F 32.8 °F 36.0 °F 89% 29.56 in 5.0 mi NNW 9.2 mph - N/A   Overcast
4:54 PM 39.0 °F 32.3 °F 35.1 °F 86% 29.55 in 4.0 mi North 10.4 mph - 0.00 in   Overcast
5:12 PM 37.4 °F 31.4 °F 35.6 °F 93% 29.54 in 2.5 mi North 8.1 mph - N/A   Overcast
5:19 PM 37.4 °F 29.3 °F 35.6 °F 93% 29.54 in 4.0 mi North 12.7 mph 17.3 mph N/A   Overcast
5:43 PM 37.4 °F 32.8 °F 35.6 °F 93% 29.57 in 2.5 mi North 5.8 mph - 0.00 in Rain Light Rain
5:54 PM 37.9 °F 31.5 °F 35.1 °F 89% 29.56 in 3.0 mi NNW 9.2 mph - 0.00 in Rain Light Rain
6:07 PM 37.4 °F 31.4 °F 35.6 °F 93% 29.55 in 2.5 mi North 8.1 mph - 0.01 in Rain Light Rain
6:54 PM 37.9 °F 31.5 °F 35.1 °F 89% 29.54 in 2.5 mi North 9.2 mph - 0.01 in Rain Light Rain
7:01 PM 37.4 °F 31.4 °F 35.6 °F 93% 29.55 in 5.0 mi NNW 8.1 mph - 0.00 in Rain Light Rain
7:54 PM 37.9 °F 34.4 °F 35.1 °F 89% 29.58 in 5.0 mi North 4.6 mph - 0.02 in Rain Light Rain
8:39 PM 37.4 °F 32.1 °F 35.6 °F 93% 29.57 in 5.0 mi NNW 6.9 mph - 0.02 in Rain Light Rain
8:54 PM 37.9 °F 32.1 °F 35.1 °F 89% 29.55 in 5.0 mi North 8.1 mph - 0.03 in Rain Light Rain
9:06 PM 37.4 °F 31.4 °F 35.6 °F 93% 29.54 in 6.0 mi North 8.1 mph - 0.00 in Rain Light Rain
9:21 PM 37.4 °F 32.8 °F 35.6 °F 93% 29.54 in 3.0 mi North 5.8 mph - 0.03 in Rain Rain
9:54 PM 37.9 °F 33.5 °F 34.0 °F 86% 29.55 in 7.0 mi NNE 5.8 mph - 0.04 in Rain Light Rain
10:04 PM 37.4 °F 32.8 °F 33.8 °F 87% 29.54 in 6.0 mi North 5.8 mph - 0.01 in Rain Light Rain
10:42 PM 37.4 °F 30.8 °F 33.8 °F 87% 29.50 in 10.0 mi NNE 9.2 mph - 0.02 in   Overcast
10:54 PM 37.0 °F 29.3 °F 33.1 °F 86% 29.51 in 10.0 mi NNE 11.5 mph - 0.02 in   Overcast
11:08 PM 37.4 °F 27.5 °F 33.8 °F 87% 29.45 in 10.0 mi NE 18.4 mph 24.2 mph N/A   Overcast
11:16 PM 37.4 °F 29.8 °F 33.8 °F 87% 29.46 in 10.0 mi NE 11.5 mph 24.2 mph N/A   Overcast
11:31 PM 37.4 °F 31.4 °F 33.8 °F 87% 29.49 in 10.0 mi NNE 8.1 mph - N/A   Overcast
11:54 PM 37.4 °F 32.1 °F 33.8 °F 87% 29.52 in 10.0 mi WNW 6.9 mph - N/A   Overcast